Terminal Aerodrome Forecast
Issued by NWS

Home | Current Version | Previous Version | Text Only | Print | Product List | Glossary On
Versions: 1 2 3 4 5 6 7 8 9 10 11 12 13 14 15 16 17 18 19 20 21 22 23 24 25 26 27 28 29 30 31 32 33 34 35 36 37 38
000
FTUS46 KOTX 310650 AAA
TAFCOE
TAF AMD
KCOE 310650Z 3107/0106 27006KT 6SM -SHSN BKN006 OVC010
     FM311800 30005KT P6SM OVC012
     FM010200 02005KT P6SM OVC010
      AMD LTD TO CLD AND VIS=

USA.gov is the U.S. government's official web portal to all federal, state and local government web resources and services.